Location: Newark
(60.6561°N, 46.5772°E)
Time: 00:38:22
(UTC+00:00)

Tiros 1 despin weight - Pass Details

Date: 26 October 2019
Orbit: 594 x 642 km, 48.2° (Epoch: 12 November)

Event Time Altitude Azimuth Distance (km) Brightness Sun altitude
Rises 19:37:49 0° 202° (SSW) 2,911 - -40.7°
Reaches altitude 10° 19:42:21 10° 161° (SSE) 2,020 - -40.8°
Maximum altitude 19:43:02 10° 152° (SSE) 2,003 - -40.9°
Drops below altitude 10° 19:43:43 10° 144° (SE) 2,024 - -40.9°
Sets 19:48:18 0° 103° (ESE) 2,945 - -41.0°
